This is the latest recevied weather packets stored in our database for station/object N1MCJ. If no packets are shown the sender has not sent any weather packets the latest 1 day(s).
| Time | Temp. | Humidity | Pressure | Rain* | Wind** | Luminosity | Snow |
|---|---|---|---|---|---|---|---|
| 1836274743 | 17.22° C | 66% | 1010.5 hPa | 0 mm | 0 m/s | 0 W/m² | - |
| 1778046394 | 15° C | 85% | 1002.1 hPa | 0 mm | 0.89 m/s, 304° | 0 W/m² | - |
| 1778045492 | 15° C | 84% | 1001.9 hPa | 0 mm | 0.89 m/s, 72° | 0 W/m² | - |
| 1778044591 | 15.56° C | 83% | 1001.9 hPa | 0 mm | 0.45 m/s, 47° | 0 W/m² | - |
| 1778043688 | 15.56° C | 82% | 1001.9 hPa | 0 mm | 0.89 m/s, 324° | 0 W/m² | - |
| 1778042785 | 15.56° C | 81% | 1002 hPa | 0 mm | 1.34 m/s, 224° | 0 W/m² | - |
| 1778041883 | 15.56° C | 81% | 1002.3 hPa | 0 mm | 1.79 m/s, 21° | 0 W/m² | - |
| 1778040978 | 16.11° C | 80% | 1002.1 hPa | 0 mm | 2.68 m/s, 196° | 0 W/m² | - |
| 1778040074 | 16.11° C | 78% | 1002.4 hPa | 0 mm | 1.79 m/s, 82° | 0 W/m² | - |
| 1778039171 | 16.11° C | 77% | 1001.9 hPa | 0 mm | 0.89 m/s, 64° | 0 W/m² | - |
| 1778038268 | 16.11° C | 76% | 1002.1 hPa | 0 mm | 0.89 m/s, 225° | 0 W/m² | - |
| 1778037365 | 16.67° C | 75% | 1002.1 hPa | 0 mm | 3.13 m/s, 202° | 0 W/m² | - |
| 1778036463 | 16.67° C | 75% | 1002.4 hPa | 0 mm | 1.79 m/s, 289° | 0 W/m² | - |
| 1778035559 | 16.67° C | 74% | 1002.3 hPa | 0 mm | 1.34 m/s, 227° | 0 W/m² | - |
| 1778034655 | 16.67° C | 73% | 1002.3 hPa | 0 mm | 0.45 m/s, 93° | 0 W/m² | - |
| 1778033753 | 16.67° C | 72% | 1002.4 hPa | 0 mm | 0.89 m/s, 95° | 0 W/m² | - |
| 1778032850 | 17.22° C | 71% | 1001.9 hPa | 0 mm | 1.34 m/s, 169° | 0 W/m² | - |
| 1778031948 | 17.22° C | 71% | 1001.9 hPa | 0 mm | 2.24 m/s, 18° | 0 W/m² | - |
| 1778031044 | 17.22° C | 71% | 1001.9 hPa | 0 mm | 0.45 m/s, 98° | 0 W/m² | - |
| 1778030140 | 17.22° C | 70% | 1001.5 hPa | 0 mm | 0.89 m/s, 171° | 0 W/m² | - |
| 1778029238 | 17.22° C | 70% | 1001.3 hPa | 0 mm | 0.45 m/s, 70° | 0 W/m² | - |
| 1778028334 | 17.22° C | 69% | 1001.2 hPa | 0 mm | 1.34 m/s, 9° | 0 W/m² | - |
| 1778027429 | 17.78° C | 68% | 1001 hPa | 0 mm | 0.45 m/s, 84° | 0 W/m² | - |
| 1778026524 | 17.78° C | 67% | 1001.1 hPa | 0 mm | 0.45 m/s, 47° | 0 W/m² | - |
| 1778025622 | 17.78° C | 65% | 1000.8 hPa | 0 mm | 1.79 m/s, 180° | 0 W/m² | - |
* Rain latest hour (hover to see other rain measurements)
** Current wind speed in m/s (hover to see current wind gust speed)